Time,TemperatureF,DewpointF,PressureIn,WindDirection,WindDirectionDegrees,WindSpeedMPH,WindSpeedGustMPH,Humidity,HourlyPrecipIn,Conditions,Clouds,dailyrainin,SoftwareType,DateUTC
2013-03-10 00:00:00,32.1,27.2,30.19,West,281,0.0,1.0,82,0.00,,,0.00,LWC V2.11 B50,2013-03-10 05:00:00,
2013-03-10 00:05:00,32.3,27.1,30.19,SW,215,0.0,1.0,81,0.00,,,0.00,LWC V2.11 B50,2013-03-10 05:05:00,
2013-03-10 00:07:00,32.5,27.0,30.19,SW,215,0.0,0.0,80,0.00,,,0.00,LWC V2.11 B50,2013-03-10 05:07:00,
2013-03-10 00:09:00,32.7,27.5,30.19,SSW,204,0.0,1.0,81,0.00,,,0.00,LWC V2.11 B50,2013-03-10 05:09:00,
2013-03-10 00:14:00,32.9,28.0,30.19,SSW,204,0.0,0.0,82,0.00,,,0.00,LWC V2.11 B50,2013-03-10 05:14:00,
2013-03-10 00:19:00,32.6,27.7,30.19,SE,133,0.0,0.0,82,0.00,,,0.00,LWC V2.11 B50,2013-03-10 05:19:00,
2013-03-10 00:20:00,32.5,27.6,30.19,SE,133,0.0,1.0,82,0.00,,,0.00,LWC V2.11 B50,2013-03-10 05:20:00,
2013-03-10 00:25:00,32.4,27.8,30.19,SSE,153,1.0,1.0,83,0.00,,,0.00,LWC V2.11 B50,2013-03-10 05:25:00,
2013-03-10 00:30:00,32.7,27.8,30.19,SE,136,0.0,1.0,82,0.00,,,0.00,LWC V2.11 B50,2013-03-10 05:30:00,
2013-03-10 00:35:00,32.8,28.2,30.19,SE,129,0.0,1.0,83,0.00,,,0.00,LWC V2.11 B50,2013-03-10 05:35:00,
2013-03-10 00:40:00,32.6,28.3,30.19,ESE,121,0.0,1.0,84,0.00,,,0.00,LWC V2.11 B50,2013-03-10 05:40:00,
2013-03-10 00:46:00,32.7,28.4,30.18,SE,133,1.0,1.0,84,0.00,,,0.00,LWC V2.11 B50,2013-03-10 05:46:00,
2013-03-10 00:51:00,33.3,28.7,30.18,ESE,115,2.0,2.0,83,0.00,,,0.00,LWC V2.11 B50,2013-03-10 05:51:00,
2013-03-10 00:56:00,34.6,28.8,30.18,SE,124,1.0,3.0,79,0.00,,,0.00,LWC V2.11 B50,2013-03-10 05:56:00,
2013-03-10 01:01:00,35.6,28.8,30.18,SE,139,2.0,2.0,76,0.00,,,0.00,LWC V2.11 B50,2013-03-10 06:01:00,
2013-03-10 01:06:00,36.4,28.9,30.18,SE,133,0.0,1.0,74,0.00,,,0.00,LWC V2.11 B50,2013-03-10 06:06:00,
2013-03-10 01:11:00,36.7,29.5,30.18,SSE,157,0.0,0.0,75,0.00,,,0.00,LWC V2.11 B50,2013-03-10 06:11:00,
2013-03-10 01:16:00,36.7,29.2,30.18,SSE,148,2.0,2.0,74,0.00,,,0.00,LWC V2.11 B50,2013-03-10 06:16:00,
2013-03-10 01:21:00,37.2,29.4,30.18,SSE,152,1.0,2.0,73,0.00,,,0.00,LWC V2.11 B50,2013-03-10 06:21:00,
2013-03-10 01:26:00,37.1,30.2,30.18,SSE,147,2.0,2.0,76,0.00,,,0.00,LWC V2.11 B50,2013-03-10 06:26:00,
2013-03-10 01:31:00,37.6,29.1,30.18,SE,135,1.0,2.0,71,0.00,,,0.00,LWC V2.11 B50,2013-03-10 06:31:00,
2013-03-10 01:36:00,38.8,28.4,30.17,SE,126,3.0,4.0,66,0.00,,,0.00,LWC V2.11 B50,2013-03-10 06:36:00,
2013-03-10 01:41:00,39.9,28.3,30.16,SE,124,4.0,5.0,63,0.00,,,0.00,LWC V2.11 B50,2013-03-10 06:41:00,
2013-03-10 01:46:00,40.5,28.5,30.16,SE,129,3.0,6.0,62,0.00,,,0.00,LWC V2.11 B50,2013-03-10 06:46:00,
2013-03-10 01:51:00,40.6,28.6,30.15,SE,124,2.0,5.0,62,0.00,,,0.00,LWC V2.11 B50,2013-03-10 06:51:00,
2013-03-10 01:56:00,40.8,27.6,30.17,SSE,165,2.0,2.0,59,0.00,,,0.00,LWC V2.11 B50,2013-03-10 06:56:00,
2013-03-10 03:01:00,41.6,27.5,30.17,SE,137,2.0,4.0,57,0.00,,,0.00,LWC V2.11 B50,2013-03-10 07:01:00,
2013-03-10 03:06:00,42.2,26.8,30.16,SE,124,1.0,3.0,54,0.00,,,0.00,LWC V2.11 B50,2013-03-10 07:06:00,
2013-03-10 03:11:00,41.9,27.8,30.15,ESE,108,2.0,3.0,57,0.00,,,0.00,LWC V2.11 B50,2013-03-10 07:11:00,
2013-03-10 03:16:00,41.7,27.6,30.15,SE,129,3.0,3.0,57,0.00,,,0.00,LWC V2.11 B50,2013-03-10 07:16:00,
2013-03-10 03:21:00,41.3,27.7,30.15,ESE,119,3.0,3.0,58,0.00,,,0.00,LWC V2.11 B50,2013-03-10 07:21:00,
2013-03-10 03:26:00,41.1,27.5,30.15,SE,141,1.0,2.0,58,0.00,,,0.00,LWC V2.11 B50,2013-03-10 07:26:00,
2013-03-10 03:31:00,40.7,28.3,30.15,SE,134,1.0,1.0,61,0.00,,,0.00,LWC V2.11 B50,2013-03-10 07:31:00,
2013-03-10 03:36:00,40.5,28.1,30.15,SSE,152,1.0,2.0,61,0.00,,,0.00,LWC V2.11 B50,2013-03-10 07:36:00,
2013-03-10 03:41:00,41.0,28.2,30.15,SSE,160,3.0,4.0,60,0.00,,,0.00,LWC V2.11 B50,2013-03-10 07:41:00,
2013-03-10 03:46:00,41.3,28.5,30.15,ESE,119,0.0,2.0,60,0.00,,,0.00,LWC V2.11 B50,2013-03-10 07:46:00,
2013-03-10 03:51:00,41.0,28.2,30.15,SE,124,0.0,1.0,60,0.00,,,0.00,LWC V2.11 B50,2013-03-10 07:51:00,
2013-03-10 03:56:00,40.7,27.9,30.15,SE,129,0.0,1.0,60,0.00,,,0.00,LWC V2.11 B50,2013-03-10 07:56:00,
2013-03-10 04:01:00,40.6,27.8,30.15,ESE,115,2.0,2.0,60,0.00,,,0.00,LWC V2.11 B50,2013-03-10 08:01:00,
2013-03-10 04:06:00,40.6,28.2,30.14,SE,134,2.0,2.0,61,0.00,,,0.00,LWC V2.11 B50,2013-03-10 08:06:00,
2013-03-10 04:11:00,40.9,28.1,30.13,SE,128,3.0,4.0,60,0.00,,,0.00,LWC V2.11 B50,2013-03-10 08:11:00,
2013-03-10 04:16:00,40.9,28.1,30.13,ESE,115,2.0,3.0,60,0.00,,,0.00,LWC V2.11 B50,2013-03-10 08:16:00,
2013-03-10 04:21:00,41.2,28.0,30.13,ESE,110,2.0,2.0,59,0.00,,,0.00,LWC V2.11 B50,2013-03-10 08:21:00,
2013-03-10 04:26:00,41.7,27.2,30.13,SE,146,6.0,7.0,56,0.00,,,0.00,LWC V2.11 B50,2013-03-10 08:26:00,
2013-03-10 04:31:00,42.4,27.4,30.13,ESE,115,2.0,4.0,55,0.00,,,0.00,LWC V2.11 B50,2013-03-10 08:31:00,
2013-03-10 04:36:00,42.0,27.9,30.13,SE,127,3.0,3.0,57,0.00,,,0.00,LWC V2.11 B50,2013-03-10 08:36:00,
2013-03-10 04:41:00,41.6,27.1,30.13,ESE,108,1.0,3.0,56,0.00,,,0.00,LWC V2.11 B50,2013-03-10 08:41:00,
2013-03-10 04:46:00,41.3,27.2,30.13,ESE,107,2.0,3.0,57,0.00,,,0.00,LWC V2.11 B50,2013-03-10 08:46:00,
2013-03-10 04:51:00,41.2,27.6,30.13,SE,130,1.0,2.0,58,0.00,,,0.00,LWC V2.11 B50,2013-03-10 08:51:00,
2013-03-10 04:56:00,40.8,27.6,30.13,SE,135,0.0,2.0,59,0.00,,,0.00,LWC V2.11 B50,2013-03-10 08:56:00,
2013-03-10 05:01:00,40.8,27.6,30.12,ESE,122,0.0,3.0,59,0.00,,,0.00,LWC V2.11 B50,2013-03-10 09:01:00,
2013-03-10 05:06:00,40.9,27.3,30.13,ESE,119,1.0,2.0,58,0.00,,,0.00,LWC V2.11 B50,2013-03-10 09:06:00,
2013-03-10 05:11:00,41.0,26.9,30.12,SE,131,3.0,3.0,57,0.00,,,0.00,LWC V2.11 B50,2013-03-10 09:11:00,
2013-03-10 05:16:00,41.0,26.9,30.12,SSE,147,2.0,2.0,57,0.00,,,0.00,LWC V2.11 B50,2013-03-10 09:16:00,
2013-03-10 05:21:00,40.9,26.9,30.12,SE,133,1.0,2.0,57,0.00,,,0.00,LWC V2.11 B50,2013-03-10 09:21:00,
2013-03-10 05:26:00,40.7,27.1,30.12,ESE,113,2.0,3.0,58,0.00,,,0.00,LWC V2.11 B50,2013-03-10 09:26:00,
2013-03-10 05:31:00,40.7,27.1,30.12,ESE,117,3.0,3.0,58,0.00,,,0.00,LWC V2.11 B50,2013-03-10 09:31:00,
2013-03-10 05:36:00,40.6,27.0,30.12,SE,128,2.0,3.0,58,0.00,,,0.00,LWC V2.11 B50,2013-03-10 09:36:00,
2013-03-10 05:41:00,40.3,27.1,30.12,SE,124,2.0,3.0,59,0.00,,,0.00,LWC V2.11 B50,2013-03-10 09:41:00,
2013-03-10 05:46:00,40.3,26.7,30.12,ESE,122,2.0,3.0,58,0.00,,,0.00,LWC V2.11 B50,2013-03-10 09:46:00,
2013-03-10 05:51:00,40.4,26.8,30.12,SE,125,1.0,2.0,58,0.00,,,0.00,LWC V2.11 B50,2013-03-10 09:51:00,
2013-03-10 05:56:00,40.6,26.6,30.11,ESE,122,1.0,2.0,57,0.00,,,0.00,LWC V2.11 B50,2013-03-10 09:56:00,
2013-03-10 06:01:00,41.1,26.6,30.11,SE,129,3.0,4.0,56,0.00,,,0.00,LWC V2.11 B50,2013-03-10 10:01:00,
2013-03-10 06:06:00,41.8,26.4,30.11,SE,124,3.0,3.0,54,0.00,,,0.00,LWC V2.11 B50,2013-03-10 10:06:00,
2013-03-10 06:11:00,42.1,26.2,30.11,SE,136,2.0,4.0,53,0.00,,,0.00,LWC V2.11 B50,2013-03-10 10:11:00,
2013-03-10 06:16:00,42.1,26.7,30.11,SE,137,2.0,2.0,54,0.00,,,0.00,LWC V2.11 B50,2013-03-10 10:16:00,
2013-03-10 06:21:00,41.9,26.0,30.11,SE,126,2.0,3.0,53,0.00,,,0.00,LWC V2.11 B50,2013-03-10 10:21:00,
2013-03-10 06:26:00,41.7,25.8,30.11,SE,143,3.0,3.0,53,0.00,,,0.00,LWC V2.11 B50,2013-03-10 10:26:00,
2013-03-10 06:31:00,41.4,26.0,30.11,SE,130,3.0,3.0,54,0.00,,,0.00,LWC V2.11 B50,2013-03-10 10:31:00,
2013-03-10 06:36:00,41.3,25.9,30.11,SE,133,2.0,3.0,54,0.00,,,0.00,LWC V2.11 B50,2013-03-10 10:36:00,
2013-03-10 06:41:00,41.1,26.2,30.12,SE,141,2.0,3.0,55,0.00,,,0.00,LWC V2.11 B50,2013-03-10 10:41:00,
2013-03-10 06:46:00,41.0,26.5,30.12,SE,145,2.0,3.0,56,0.00,,,0.00,LWC V2.11 B50,2013-03-10 10:46:00,
2013-03-10 06:51:00,40.9,26.4,30.11,SE,138,1.0,3.0,56,0.00,,,0.00,LWC V2.11 B50,2013-03-10 10:51:00,
2013-03-10 06:56:00,40.9,27.7,30.12,SSE,149,0.0,0.0,59,0.00,,,0.00,LWC V2.11 B50,2013-03-10 10:56:00,
2013-03-10 07:01:00,40.5,27.7,30.12,SSE,150,0.0,0.0,60,0.00,,,0.00,LWC V2.11 B50,2013-03-10 11:01:00,
2013-03-10 07:06:00,40.0,27.7,30.13,West,264,0.0,1.0,61,0.00,,,0.00,LWC V2.11 B50,2013-03-10 11:06:00,
2013-03-10 07:11:00,39.6,26.9,30.13,West,263,0.0,0.0,60,0.00,,,0.00,LWC V2.11 B50,2013-03-10 11:11:00,
2013-03-10 07:16:00,39.6,27.3,30.13,SSW,210,0.0,1.0,61,0.00,,,0.00,LWC V2.11 B50,2013-03-10 11:16:00,
2013-03-10 07:21:00,39.4,27.1,30.13,SSE,159,1.0,2.0,61,0.00,,,0.00,LWC V2.11 B50,2013-03-10 11:21:00,
2013-03-10 07:26:00,39.2,27.3,30.13,SSE,150,1.0,2.0,62,0.00,,,0.00,LWC V2.11 B50,2013-03-10 11:26:00,
2013-03-10 07:31:00,38.8,27.3,30.13,SSE,158,0.0,2.0,63,0.00,,,0.00,LWC V2.11 B50,2013-03-10 11:31:00,
2013-03-10 07:36:00,38.5,27.0,30.13,SSW,193,0.0,2.0,63,0.00,,,0.00,LWC V2.11 B50,2013-03-10 11:36:00,
2013-03-10 07:41:00,38.4,26.9,30.13,SE,142,1.0,2.0,63,0.00,,,0.00,LWC V2.11 B50,2013-03-10 11:41:00,
2013-03-10 07:46:00,38.3,27.2,30.13,SE,146,2.0,3.0,64,0.00,,,0.00,LWC V2.11 B50,2013-03-10 11:46:00,
2013-03-10 07:51:00,38.1,27.8,30.13,SSE,147,3.0,4.0,66,0.00,,,0.00,LWC V2.11 B50,2013-03-10 11:51:00,
2013-03-10 07:56:00,37.8,27.8,30.12,SSE,151,4.0,4.0,67,0.00,,,0.00,LWC V2.11 B50,2013-03-10 11:56:00,
2013-03-10 08:01:00,37.9,28.3,30.13,SE,146,2.0,3.0,68,0.00,,,0.00,LWC V2.11 B50,2013-03-10 12:01:00,
2013-03-10 08:06:00,38.4,26.9,30.13,SSE,149,2.0,3.0,63,0.00,,,0.00,LWC V2.11 B50,2013-03-10 12:06:00,
2013-03-10 08:11:00,39.0,26.7,30.13,SE,129,2.0,3.0,61,0.00,,,0.00,LWC V2.11 B50,2013-03-10 12:11:00,
2013-03-10 08:16:00,39.9,26.3,30.12,SE,134,1.0,3.0,58,0.00,,,0.00,LWC V2.11 B50,2013-03-10 12:16:00,
2013-03-10 08:21:00,40.3,26.3,30.13,ESE,110,0.0,2.0,57,0.00,,,0.00,LWC V2.11 B50,2013-03-10 12:21:00,
2013-03-10 08:26:00,40.5,25.6,30.13,East,84,2.0,3.0,55,0.00,,,0.00,LWC V2.11 B50,2013-03-10 12:26:00,
2013-03-10 08:31:00,40.8,25.9,30.13,SE,132,0.0,2.0,55,0.00,,,0.00,LWC V2.11 B50,2013-03-10 12:31:00,
2013-03-10 08:36:00,40.5,26.5,30.13,East,81,0.0,1.0,57,0.00,,,0.00,LWC V2.11 B50,2013-03-10 12:36:00,
2013-03-10 08:41:00,40.2,26.6,30.13,East,82,0.0,1.0,58,0.00,,,0.00,LWC V2.11 B50,2013-03-10 12:41:00,
2013-03-10 08:46:00,40.4,26.4,30.13,ESE,117,2.0,2.0,57,0.00,,,0.00,LWC V2.11 B50,2013-03-10 12:46:00,
2013-03-10 08:51:00,41.1,27.0,30.13,ESE,121,3.0,3.0,57,0.00,,,0.00,LWC V2.11 B50,2013-03-10 12:51:00,
2013-03-10 08:56:00,42.0,27.5,30.13,SE,130,1.0,2.0,56,0.00,,,0.00,LWC V2.11 B50,2013-03-10 12:56:00,
2013-03-10 09:01:00,42.5,27.5,30.13,SE,125,0.0,1.0,55,0.00,,,0.00,LWC V2.11 B50,2013-03-10 13:01:00,
2013-03-10 09:06:00,43.0,28.0,30.13,ESE,108,0.0,1.0,55,0.00,,,0.00,LWC V2.11 B50,2013-03-10 13:06:00,
2013-03-10 09:11:00,43.6,27.6,30.13,SE,138,0.0,2.0,53,0.00,,,0.00,LWC V2.11 B50,2013-03-10 13:11:00,
2013-03-10 09:16:00,43.9,27.0,30.13,SE,136,1.0,3.0,51,0.00,,,0.00,LWC V2.11 B50,2013-03-10 13:16:00,
2013-03-10 09:21:00,44.1,27.1,30.13,SSE,147,2.0,2.0,51,0.00,,,0.00,LWC V2.11 B50,2013-03-10 13:21:00,
2013-03-10 09:26:00,44.3,27.3,30.14,SE,130,2.0,2.0,51,0.00,,,0.00,LWC V2.11 B50,2013-03-10 13:26:00,
2013-03-10 09:31:00,44.5,28.0,30.13,SE,133,2.0,2.0,52,0.00,,,0.00,LWC V2.11 B50,2013-03-10 13:31:00,
2013-03-10 09:36:00,44.9,27.4,30.13,SE,133,3.0,4.0,50,0.00,,,0.00,LWC V2.11 B50,2013-03-10 13:36:00,
2013-03-10 09:41:00,45.3,27.3,30.14,ESE,110,2.0,4.0,49,0.00,,,0.00,LWC V2.11 B50,2013-03-10 13:41:00,
2013-03-10 09:46:00,46.0,26.9,30.14,South,181,6.0,7.0,47,0.00,,,0.00,LWC V2.11 B50,2013-03-10 13:46:00,
2013-03-10 09:51:00,47.2,26.4,30.13,SE,131,4.0,7.0,44,0.00,,,0.00,LWC V2.11 B50,2013-03-10 13:51:00,
2013-03-10 09:56:00,47.9,27.0,30.13,SSE,155,5.0,9.0,44,0.00,,,0.00,LWC V2.11 B50,2013-03-10 13:56:00,
2013-03-10 10:01:00,48.3,27.4,30.13,SSE,152,6.0,10.0,44,0.00,,,0.00,LWC V2.11 B50,2013-03-10 14:01:00,
2013-03-10 10:06:00,48.7,27.2,30.13,SSE,155,8.0,10.0,43,0.00,,,0.00,LWC V2.11 B50,2013-03-10 14:06:00,
2013-03-10 10:11:00,49.0,26.3,30.13,SSE,158,5.0,6.0,41,0.00,,,0.00,LWC V2.11 B50,2013-03-10 14:11:00,
2013-03-10 10:16:00,49.1,27.0,30.13,South,177,5.0,8.0,42,0.00,,,0.00,LWC V2.11 B50,2013-03-10 14:16:00,
2013-03-10 10:21:00,49.2,27.1,30.13,SSE,159,5.0,5.0,42,0.00,,,0.00,LWC V2.11 B50,2013-03-10 14:21:00,
2013-03-10 10:26:00,49.4,27.3,30.13,SE,139,3.0,6.0,42,0.00,,,0.00,LWC V2.11 B50,2013-03-10 14:26:00,
2013-03-10 10:31:00,49.5,26.8,30.12,SSE,150,5.0,7.0,41,0.00,,,0.00,LWC V2.11 B50,2013-03-10 14:31:00,
2013-03-10 10:36:00,49.8,27.1,30.12,SE,139,3.0,6.0,41,0.00,,,0.00,LWC V2.11 B50,2013-03-10 14:36:00,
2013-03-10 10:41:00,50.0,27.8,30.12,SSE,147,4.0,8.0,42,0.00,,,0.00,LWC V2.11 B50,2013-03-10 14:41:00,
2013-03-10 10:46:00,50.1,27.9,30.12,SSE,158,5.0,8.0,42,0.00,,,0.00,LWC V2.11 B50,2013-03-10 14:46:00,
2013-03-10 10:51:00,50.0,28.4,30.12,SSE,163,7.0,8.0,43,0.00,,,0.00,LWC V2.11 B50,2013-03-10 14:51:00,
2013-03-10 10:56:00,50.3,28.7,30.12,SSE,160,4.0,6.0,43,0.00,,,0.00,LWC V2.11 B50,2013-03-10 14:56:00,
2013-03-10 11:01:00,50.6,28.4,30.11,South,184,7.0,7.0,42,0.00,,,0.00,LWC V2.11 B50,2013-03-10 15:01:00,
2013-03-10 11:06:00,51.0,28.1,30.11,SE,134,4.0,13.0,41,0.00,,,0.00,LWC V2.11 B50,2013-03-10 15:06:00,
2013-03-10 11:11:00,51.5,29.2,30.12,SSE,156,7.0,9.0,42,0.00,,,0.00,LWC V2.11 B50,2013-03-10 15:11:00,
2013-03-10 11:16:00,51.9,29.5,30.12,SSW,205,4.0,12.0,42,0.00,,,0.00,LWC V2.11 B50,2013-03-10 15:16:00,
2013-03-10 11:21:00,52.3,28.7,30.12,SSE,159,8.0,9.0,40,0.00,,,0.00,LWC V2.11 B50,2013-03-10 15:21:00,
2013-03-10 11:26:00,52.6,29.0,30.12,SSE,163,11.0,12.0,40,0.00,,,0.00,LWC V2.11 B50,2013-03-10 15:26:00,
2013-03-10 11:31:00,52.7,29.7,30.12,SSW,197,0.0,5.0,41,0.00,,,0.00,LWC V2.11 B50,2013-03-10 15:31:00,
2013-03-10 11:36:00,53.2,30.1,30.12,SE,132,4.0,7.0,41,0.00,,,0.00,LWC V2.11 B50,2013-03-10 15:36:00,
2013-03-10 11:41:00,53.5,30.4,30.11,South,169,4.0,9.0,41,0.00,,,0.00,LWC V2.11 B50,2013-03-10 15:41:00,
2013-03-10 11:46:00,54.1,30.9,30.11,SSE,158,6.0,9.0,41,0.00,,,0.00,LWC V2.11 B50,2013-03-10 15:46:00,
2013-03-10 11:51:00,54.7,30.9,30.11,South,179,6.0,7.0,40,0.00,,,0.00,LWC V2.11 B50,2013-03-10 15:51:00,
2013-03-10 11:56:00,55.0,32.3,30.10,SSE,158,6.0,9.0,42,0.00,,,0.00,LWC V2.11 B50,2013-03-10 15:56:00,
2013-03-10 12:01:00,55.4,32.1,30.10,SSE,166,4.0,10.0,41,0.00,,,0.00,LWC V2.11 B50,2013-03-10 16:01:00,
2013-03-10 12:06:00,56.0,32.6,30.10,SSE,159,4.0,9.0,41,0.00,,,0.00,LWC V2.11 B50,2013-03-10 16:06:00,
2013-03-10 12:11:00,56.6,31.9,30.10,SE,129,7.0,9.0,39,0.00,,,0.00,LWC V2.11 B50,2013-03-10 16:11:00,
2013-03-10 12:16:00,56.8,32.1,30.10,South,179,6.0,12.0,39,0.00,,,0.00,LWC V2.11 B50,2013-03-10 16:16:00,
2013-03-10 12:21:00,57.3,33.2,30.09,South,181,4.0,5.0,40,0.00,,,0.00,LWC V2.11 B50,2013-03-10 16:21:00,
2013-03-10 12:26:00,57.9,32.5,30.09,SSE,167,7.0,12.0,38,0.00,,,0.00,LWC V2.11 B50,2013-03-10 16:26:00,
2013-03-10 12:31:00,58.1,33.3,30.09,SSW,198,15.0,17.0,39,0.00,,,0.00,LWC V2.11 B50,2013-03-10 16:31:00,
2013-03-10 12:36:00,58.2,32.7,30.08,SSW,194,13.0,15.0,38,0.00,,,0.00,LWC V2.11 B50,2013-03-10 16:36:00,
2013-03-10 12:41:00,58.6,33.7,30.08,SSW,206,5.0,13.0,39,0.00,,,0.00,LWC V2.11 B50,2013-03-10 16:41:00,
2013-03-10 12:46:00,59.1,33.5,30.08,SSE,158,7.0,12.0,38,0.00,,,0.00,LWC V2.11 B50,2013-03-10 16:46:00,
2013-03-10 12:51:00,59.5,33.9,30.09,South,186,4.0,14.0,38,0.00,,,0.00,LWC V2.11 B50,2013-03-10 16:51:00,
2013-03-10 12:56:00,60.1,33.7,30.08,South,170,4.0,12.0,37,0.00,,,0.00,LWC V2.11 B50,2013-03-10 16:56:00,
2013-03-10 13:01:00,60.9,34.5,30.08,SSW,197,5.0,11.0,37,0.00,,,0.00,LWC V2.11 B50,2013-03-10 17:01:00,
2013-03-10 13:06:00,61.4,36.2,30.07,SSE,166,5.0,9.0,39,0.00,,,0.00,LWC V2.11 B50,2013-03-10 17:06:00,
2013-03-10 13:11:00,61.6,35.1,30.07,SW,218,10.0,12.0,37,0.00,,,0.00,LWC V2.11 B50,2013-03-10 17:11:00,
2013-03-10 13:16:00,62.0,35.4,30.07,West,270,3.0,7.0,37,0.00,,,0.00,LWC V2.11 B50,2013-03-10 17:16:00,
2013-03-10 13:21:00,62.4,35.1,30.07,SSW,213,5.0,9.0,36,0.00,,,0.00,LWC V2.11 B50,2013-03-10 17:21:00,
2013-03-10 13:26:00,62.3,35.0,30.06,SSW,211,2.0,12.0,36,0.00,,,0.00,LWC V2.11 B50,2013-03-10 17:26:00,
2013-03-10 13:31:00,62.8,36.1,30.06,SE,132,6.0,7.0,37,0.00,,,0.00,LWC V2.11 B50,2013-03-10 17:31:00,
2013-03-10 13:36:00,62.9,34.8,30.06,SSE,167,9.0,9.0,35,0.00,,,0.00,LWC V2.11 B50,2013-03-10 17:36:00,
2013-03-10 13:41:00,63.0,35.6,30.05,SW,217,11.0,13.0,36,0.00,,,0.00,LWC V2.11 B50,2013-03-10 17:41:00,
2013-03-10 13:46:00,63.0,36.3,30.05,SSW,201,3.0,10.0,37,0.00,,,0.00,LWC V2.11 B50,2013-03-10 17:46:00,
2013-03-10 13:51:00,63.4,35.3,30.05,SSE,165,11.0,16.0,35,0.00,,,0.00,LWC V2.11 B50,2013-03-10 17:51:00,
2013-03-10 13:56:00,63.1,35.0,30.04,South,191,4.0,9.0,35,0.00,,,0.00,LWC V2.11 B50,2013-03-10 17:56:00,
2013-03-10 14:01:00,63.4,36.7,30.04,SSE,165,2.0,5.0,37,0.00,,,0.00,LWC V2.11 B50,2013-03-10 18:01:00,
2013-03-10 14:06:00,64.2,36.0,30.04,SSE,148,4.0,6.0,35,0.00,,,0.00,LWC V2.11 B50,2013-03-10 18:06:00,
2013-03-10 14:11:00,64.5,36.2,30.04,SSW,197,7.0,11.0,35,0.00,,,0.00,LWC V2.11 B50,2013-03-10 18:11:00,
2013-03-10 14:16:00,64.6,37.0,30.03,South,186,5.0,13.0,36,0.00,,,0.00,LWC V2.11 B50,2013-03-10 18:16:00,
2013-03-10 14:21:00,64.2,37.4,30.03,South,172,7.0,8.0,37,0.00,,,0.00,LWC V2.11 B50,2013-03-10 18:21:00,
2013-03-10 14:26:00,64.5,36.2,30.03,SSE,162,7.0,13.0,35,0.00,,,0.00,LWC V2.11 B50,2013-03-10 18:26:00,
2013-03-10 14:31:00,64.9,37.3,30.02,SW,220,3.0,10.0,36,0.00,,,0.00,LWC V2.11 B50,2013-03-10 18:31:00,
2013-03-10 14:36:00,65.2,36.9,30.02,SSE,160,7.0,11.0,35,0.00,,,0.00,LWC V2.11 B50,2013-03-10 18:36:00,
2013-03-10 14:41:00,65.0,37.4,30.01,SSE,149,7.0,15.0,36,0.00,,,0.00,LWC V2.11 B50,2013-03-10 18:41:00,
2013-03-10 14:46:00,64.7,36.4,30.01,South,183,4.0,8.0,35,0.00,,,0.00,LWC V2.11 B50,2013-03-10 18:46:00,
2013-03-10 14:51:00,64.9,37.3,30.01,SSW,201,8.0,10.0,36,0.00,,,0.00,LWC V2.11 B50,2013-03-10 18:51:00,
2013-03-10 14:56:00,65.3,36.9,30.00,SSE,165,6.0,10.0,35,0.00,,,0.00,LWC V2.11 B50,2013-03-10 18:56:00,
2013-03-10 15:01:00,65.6,36.5,30.00,SSE,158,3.0,6.0,34,0.00,,,0.00,LWC V2.11 B50,2013-03-10 19:01:00,
2013-03-10 15:06:00,66.2,37.7,30.00,South,183,7.0,12.0,35,0.00,,,0.00,LWC V2.11 B50,2013-03-10 19:06:00,
2013-03-10 15:11:00,66.2,37.0,30.00,South,170,7.0,11.0,34,0.00,,,0.00,LWC V2.11 B50,2013-03-10 19:11:00,
2013-03-10 15:16:00,66.1,36.2,29.99,SE,145,10.0,18.0,33,0.00,,,0.00,LWC V2.11 B50,2013-03-10 19:16:00,
2013-03-10 15:21:00,65.8,37.4,29.99,South,172,9.0,12.0,35,0.00,,,0.00,LWC V2.11 B50,2013-03-10 19:21:00,
2013-03-10 15:26:00,66.2,37.7,29.99,SSE,148,10.0,15.0,35,0.00,,,0.00,LWC V2.11 B50,2013-03-10 19:26:00,
2013-03-10 15:31:00,66.2,37.0,30.00,SSE,148,12.0,17.0,34,0.00,,,0.00,LWC V2.11 B50,2013-03-10 19:31:00,
2013-03-10 15:36:00,66.2,37.7,30.00,SE,129,8.0,11.0,35,0.00,,,0.00,LWC V2.11 B50,2013-03-10 19:36:00,
2013-03-10 15:41:00,66.3,37.8,29.99,SSE,160,9.0,12.0,35,0.00,,,0.00,LWC V2.11 B50,2013-03-10 19:41:00,
2013-03-10 15:46:00,66.5,37.3,29.99,SSE,168,7.0,14.0,34,0.00,,,0.00,LWC V2.11 B50,2013-03-10 19:46:00,
2013-03-10 15:52:00,66.6,38.1,29.99,SE,141,6.0,8.0,35,0.00,,,0.00,LWC V2.11 B50,2013-03-10 19:52:00,
2013-03-10 15:57:00,66.2,37.0,29.98,SSE,152,12.0,15.0,34,0.00,,,0.00,LWC V2.11 B50,2013-03-10 19:57:00,
2013-03-10 16:02:00,65.8,37.4,29.98,SSE,153,7.0,13.0,35,0.00,,,0.00,LWC V2.11 B50,2013-03-10 20:02:00,
2013-03-10 16:07:00,65.8,37.4,29.98,South,184,4.0,7.0,35,0.00,,,0.00,LWC V2.11 B50,2013-03-10 20:07:00,
2013-03-10 16:12:00,65.9,38.2,29.98,SE,141,2.0,6.0,36,0.00,,,0.00,LWC V2.11 B50,2013-03-10 20:12:00,
2013-03-10 16:17:00,66.0,39.0,29.98,SSE,163,4.0,8.0,37,0.00,,,0.00,LWC V2.11 B50,2013-03-10 20:17:00,
2013-03-10 16:22:00,66.0,38.3,29.98,SW,219,9.0,15.0,36,0.00,,,0.00,LWC V2.11 B50,2013-03-10 20:22:00,
2013-03-10 16:27:00,65.9,38.2,29.98,SSE,152,5.0,10.0,36,0.00,,,0.00,LWC V2.11 B50,2013-03-10 20:27:00,
2013-03-10 16:32:00,65.9,37.5,29.98,SSE,167,3.0,12.0,35,0.00,,,0.00,LWC V2.11 B50,2013-03-10 20:32:00,
2013-03-10 16:37:00,65.9,36.7,29.98,South,184,5.0,10.0,34,0.00,,,0.00,LWC V2.11 B50,2013-03-10 20:37:00,
2013-03-10 16:42:00,65.9,37.5,29.98,ESE,104,6.0,8.0,35,0.00,,,0.00,LWC V2.11 B50,2013-03-10 20:42:00,
2013-03-10 16:47:00,66.1,38.4,29.98,SE,146,6.0,10.0,36,0.00,,,0.00,LWC V2.11 B50,2013-03-10 20:47:00,
2013-03-10 16:53:00,66.2,38.5,29.98,SSE,167,5.0,7.0,36,0.00,,,0.00,LWC V2.11 B50,2013-03-10 20:53:00,
2013-03-10 16:58:00,66.4,37.9,29.98,SSE,166,6.0,7.0,35,0.00,,,0.00,LWC V2.11 B50,2013-03-10 20:58:00,
2013-03-10 17:03:00,66.4,37.9,29.97,SSE,148,6.0,9.0,35,0.00,,,0.00,LWC V2.11 B50,2013-03-10 21:03:00,
2013-03-10 17:08:00,66.4,38.6,29.97,WSW,239,5.0,8.0,36,0.00,,,0.00,LWC V2.11 B50,2013-03-10 21:08:00,
2013-03-10 17:13:00,66.3,36.3,29.97,South,186,5.0,10.0,33,0.00,,,0.00,LWC V2.11 B50,2013-03-10 21:13:00,
2013-03-10 17:18:00,66.2,37.7,29.98,SSW,195,1.0,6.0,35,0.00,,,0.00,LWC V2.11 B50,2013-03-10 21:18:00,
2013-03-10 17:23:00,66.0,36.1,29.98,SSW,195,6.0,7.0,33,0.00,,,0.00,LWC V2.11 B50,2013-03-10 21:23:00,
2013-03-10 17:28:00,66.0,36.8,29.97,SE,145,4.0,6.0,34,0.00,,,0.00,LWC V2.11 B50,2013-03-10 21:28:00,
2013-03-10 17:33:00,66.1,36.9,29.97,SSE,150,3.0,4.0,34,0.00,,,0.00,LWC V2.11 B50,2013-03-10 21:33:00,
2013-03-10 17:38:00,66.0,36.1,29.97,SSE,167,4.0,7.0,33,0.00,,,0.00,LWC V2.11 B50,2013-03-10 21:38:00,
2013-03-10 17:43:00,66.0,36.8,29.98,South,176,3.0,4.0,34,0.00,,,0.00,LWC V2.11 B50,2013-03-10 21:43:00,
2013-03-10 17:48:00,66.0,36.1,29.98,SSW,208,5.0,5.0,33,0.00,,,0.00,LWC V2.11 B50,2013-03-10 21:48:00,
2013-03-10 17:53:00,66.1,36.9,29.97,South,190,5.0,7.0,34,0.00,,,0.00,LWC V2.11 B50,2013-03-10 21:53:00,
2013-03-10 17:58:00,66.2,36.2,29.98,SSW,200,2.0,3.0,33,0.00,,,0.00,LWC V2.11 B50,2013-03-10 21:58:00,
2013-03-10 18:03:00,66.1,35.4,29.98,SSW,210,12.0,12.0,32,0.00,,,0.00,LWC V2.11 B50,2013-03-10 22:03:00,
2013-03-10 18:08:00,65.7,35.8,29.98,SSW,193,3.0,3.0,33,0.00,,,0.00,LWC V2.11 B50,2013-03-10 22:08:00,
2013-03-10 18:13:00,65.6,35.7,29.99,SSW,212,7.0,8.0,33,0.00,,,0.00,LWC V2.11 B50,2013-03-10 22:13:00,
2013-03-10 18:18:00,65.7,35.0,29.99,SSE,162,3.0,5.0,32,0.00,,,0.00,LWC V2.11 B50,2013-03-10 22:18:00,
2013-03-10 18:23:00,65.4,35.5,29.99,South,177,3.0,6.0,33,0.00,,,0.00,LWC V2.11 B50,2013-03-10 22:23:00,
2013-03-10 18:28:00,65.3,34.7,29.99,South,170,2.0,8.0,32,0.00,,,0.00,LWC V2.11 B50,2013-03-10 22:28:00,
2013-03-10 18:33:00,65.2,35.4,29.99,SSE,165,3.0,5.0,33,0.00,,,0.00,LWC V2.11 B50,2013-03-10 22:33:00,
2013-03-10 18:38:00,64.7,36.4,29.99,SSW,193,1.0,3.0,35,0.00,,,0.00,LWC V2.11 B50,2013-03-10 22:38:00,
2013-03-10 18:43:00,63.8,36.3,30.00,SSE,148,2.0,2.0,36,0.00,,,0.00,LWC V2.11 B50,2013-03-10 22:43:00,
2013-03-10 18:48:00,63.0,36.3,29.99,SSE,163,3.0,5.0,37,0.00,,,0.00,LWC V2.11 B50,2013-03-10 22:48:00,
2013-03-10 18:53:00,62.2,37.6,29.99,SSE,165,2.0,3.0,40,0.00,,,0.00,LWC V2.11 B50,2013-03-10 22:53:00,
2013-03-10 18:58:00,61.4,36.9,29.99,SSE,160,3.0,3.0,40,0.00,,,0.00,LWC V2.11 B50,2013-03-10 22:58:00,
2013-03-10 19:03:00,61.0,35.9,29.99,SSE,148,3.0,3.0,39,0.00,,,0.00,LWC V2.11 B50,2013-03-10 23:03:00,
2013-03-10 19:08:00,60.9,35.8,29.98,SSE,158,3.0,4.0,39,0.00,,,0.00,LWC V2.11 B50,2013-03-10 23:08:00,
2013-03-10 19:13:00,60.4,36.0,29.98,SSE,162,3.0,3.0,40,0.00,,,0.00,LWC V2.11 B50,2013-03-10 23:13:00,
2013-03-10 19:18:00,60.1,35.7,29.98,SSE,163,2.0,3.0,40,0.00,,,0.00,LWC V2.11 B50,2013-03-10 23:18:00,
2013-03-10 19:23:00,59.4,36.9,29.98,SSE,158,1.0,2.0,43,0.00,,,0.00,LWC V2.11 B50,2013-03-10 23:23:00,
2013-03-10 19:28:00,58.2,37.0,29.97,SSE,152,2.0,3.0,45,0.00,,,0.00,LWC V2.11 B50,2013-03-10 23:28:00,
2013-03-10 19:33:00,57.8,36.0,29.97,SSW,197,2.0,2.0,44,0.00,,,0.00,LWC V2.11 B50,2013-03-10 23:33:00,
2013-03-10 19:38:00,57.6,35.8,29.97,SSE,165,3.0,3.0,44,0.00,,,0.00,LWC V2.11 B50,2013-03-10 23:38:00,
2013-03-10 19:43:00,57.2,36.1,29.97,SSW,194,1.0,2.0,45,0.00,,,0.00,LWC V2.11 B50,2013-03-10 23:43:00,
2013-03-10 19:48:00,57.1,37.1,29.98,SW,217,0.0,0.0,47,0.00,,,0.00,LWC V2.11 B50,2013-03-10 23:48:00,
2013-03-10 19:53:00,57.0,36.4,29.98,SSE,167,0.0,2.0,46,0.00,,,0.00,LWC V2.11 B50,2013-03-10 23:53:00,
2013-03-10 19:58:00,56.5,36.5,29.98,South,172,1.0,1.0,47,0.00,,,0.00,LWC V2.11 B50,2013-03-10 23:58:00,
2013-03-10 20:03:00,56.6,35.5,29.99,SSW,207,1.0,2.0,45,0.00,,,0.00,LWC V2.11 B50,2013-03-11 00:03:00,
2013-03-10 20:08:00,57.4,36.2,29.99,SE,145,2.0,7.0,45,0.00,,,0.00,LWC V2.11 B50,2013-03-11 00:08:00,
2013-03-10 20:13:00,58.0,35.6,29.99,SSE,158,5.0,8.0,43,0.00,,,0.00,LWC V2.11 B50,2013-03-11 00:13:00,
2013-03-10 20:18:00,58.6,35.0,29.99,SSE,167,4.0,6.0,41,0.00,,,0.00,LWC V2.11 B50,2013-03-11 00:18:00,
2013-03-10 20:23:00,58.9,35.8,29.99,SSE,153,4.0,5.0,42,0.00,,,0.00,LWC V2.11 B50,2013-03-11 00:23:00,
2013-03-10 20:28:00,58.7,34.4,30.00,SSE,152,5.0,6.0,40,0.00,,,0.00,LWC V2.11 B50,2013-03-11 00:28:00,
2013-03-10 20:33:00,58.8,34.5,30.00,SE,138,7.0,7.0,40,0.00,,,0.00,LWC V2.11 B50,2013-03-11 00:33:00,
2013-03-10 20:38:00,59.0,34.1,30.00,SE,132,2.0,6.0,39,0.00,,,0.00,LWC V2.11 B50,2013-03-11 00:38:00,
2013-03-10 20:43:00,58.7,33.8,29.99,SE,125,6.0,9.0,39,0.00,,,0.00,LWC V2.11 B50,2013-03-11 00:43:00,
2013-03-10 20:48:00,58.8,33.3,29.99,SSE,147,6.0,8.0,38,0.00,,,0.00,LWC V2.11 B50,2013-03-11 00:48:00,
2013-03-10 20:53:00,58.5,33.6,29.99,SSE,149,5.0,9.0,39,0.00,,,0.00,LWC V2.11 B50,2013-03-11 00:53:00,
2013-03-10 20:59:00,58.2,32.7,29.98,SE,141,6.0,9.0,38,0.00,,,0.00,LWC V2.11 B50,2013-03-11 00:59:00,
2013-03-10 21:04:00,57.7,32.9,29.97,SE,143,6.0,8.0,39,0.00,,,0.00,LWC V2.11 B50,2013-03-11 01:04:00,
2013-03-10 21:09:00,57.2,33.1,29.96,ESE,123,6.0,7.0,40,0.00,,,0.00,LWC V2.11 B50,2013-03-11 01:09:00,
2013-03-10 21:15:00,56.3,32.3,29.97,SSE,150,1.0,5.0,40,0.00,,,0.00,LWC V2.11 B50,2013-03-11 01:15:00,
2013-03-10 21:20:00,56.2,32.2,29.99,SE,127,1.0,4.0,40,0.00,,,0.00,LWC V2.11 B50,2013-03-11 01:20:00,
2013-03-10 21:25:00,55.8,31.8,29.99,SE,143,0.0,1.0,40,0.00,,,0.00,LWC V2.11 B50,2013-03-11 01:25:00,
2013-03-10 21:30:00,55.4,32.1,29.99,SE,141,2.0,3.0,41,0.00,,,0.00,LWC V2.11 B50,2013-03-11 01:30:00,
2013-03-10 21:35:00,54.7,32.1,29.99,SSE,148,4.0,4.0,42,0.00,,,0.00,LWC V2.11 B50,2013-03-11 01:35:00,
2013-03-10 21:40:00,54.7,32.1,29.99,ESE,113,3.0,5.0,42,0.00,,,0.00,LWC V2.11 B50,2013-03-11 01:40:00,
2013-03-10 21:45:00,54.6,32.0,29.98,SE,124,3.0,5.0,42,0.00,,,0.00,LWC V2.11 B50,2013-03-11 01:45:00,
2013-03-10 21:50:00,54.5,31.9,29.98,SE,135,3.0,4.0,42,0.00,,,0.00,LWC V2.11 B50,2013-03-11 01:50:00,
2013-03-10 21:55:00,54.1,32.1,29.98,SE,135,4.0,5.0,43,0.00,,,0.00,LWC V2.11 B50,2013-03-11 01:55:00,
2013-03-10 22:00:00,53.9,31.9,29.97,SE,144,2.0,4.0,43,0.00,,,0.00,LWC V2.11 B50,2013-03-11 02:00:00,
2013-03-10 22:05:00,53.7,32.3,29.97,SE,144,4.0,5.0,44,0.00,,,0.00,LWC V2.11 B50,2013-03-11 02:05:00,
2013-03-10 22:10:00,53.8,31.8,29.97,SSE,152,4.0,6.0,43,0.00,,,0.00,LWC V2.11 B50,2013-03-11 02:10:00,
2013-03-10 22:15:00,54.1,32.1,29.97,SSE,148,4.0,9.0,43,0.00,,,0.00,LWC V2.11 B50,2013-03-11 02:15:00,
2013-03-10 22:20:00,54.0,32.0,29.96,SE,137,6.0,7.0,43,0.00,,,0.00,LWC V2.11 B50,2013-03-11 02:20:00,
2013-03-10 22:25:00,53.7,32.3,29.96,ESE,118,4.0,4.0,44,0.00,,,0.00,LWC V2.11 B50,2013-03-11 02:25:00,
2013-03-10 22:31:00,53.5,32.1,29.96,ESE,118,3.0,5.0,44,0.00,,,0.00,LWC V2.11 B50,2013-03-11 02:31:00,
2013-03-10 22:37:00,53.5,32.1,29.96,ESE,119,5.0,6.0,44,0.00,,,0.00,LWC V2.11 B50,2013-03-11 02:37:00,
2013-03-10 22:42:00,53.8,32.4,29.96,SE,139,7.0,9.0,44,0.00,,,0.00,LWC V2.11 B50,2013-03-11 02:42:00,
2013-03-10 22:47:00,53.6,32.2,29.96,ESE,123,4.0,5.0,44,0.00,,,0.00,LWC V2.11 B50,2013-03-11 02:47:00,
2013-03-10 22:53:00,53.4,32.6,29.97,SE,138,4.0,5.0,45,0.00,,,0.00,LWC V2.11 B50,2013-03-11 02:53:00,
2013-03-10 22:58:00,53.6,32.2,29.97,SE,139,4.0,6.0,44,0.00,,,0.00,LWC V2.11 B50,2013-03-11 02:58:00,
2013-03-10 23:03:00,53.8,32.4,29.97,SE,133,4.0,6.0,44,0.00,,,0.00,LWC V2.11 B50,2013-03-11 03:03:00,
2013-03-10 23:08:00,53.8,32.4,29.96,ESE,122,5.0,5.0,44,0.00,,,0.00,LWC V2.11 B50,2013-03-11 03:08:00,
2013-03-10 23:13:00,53.9,31.9,29.96,SSE,148,4.0,7.0,43,0.00,,,0.00,LWC V2.11 B50,2013-03-11 03:13:00,
2013-03-10 23:18:00,53.9,31.9,29.96,SE,135,4.0,7.0,43,0.00,,,0.00,LWC V2.11 B50,2013-03-11 03:18:00,
2013-03-10 23:23:00,53.8,32.4,29.96,SE,125,4.0,7.0,44,0.00,,,0.00,LWC V2.11 B50,2013-03-11 03:23:00,
2013-03-10 23:28:00,53.4,32.6,29.96,ESE,121,4.0,6.0,45,0.00,,,0.00,LWC V2.11 B50,2013-03-11 03:28:00,
2013-03-10 23:33:00,53.0,32.8,29.96,South,169,4.0,6.0,46,0.00,,,0.00,LWC V2.11 B50,2013-03-11 03:33:00,
2013-03-10 23:38:00,53.1,32.3,29.96,SE,143,5.0,6.0,45,0.00,,,0.00,LWC V2.11 B50,2013-03-11 03:38:00,
2013-03-10 23:43:00,53.3,32.5,29.95,SSE,155,5.0,9.0,45,0.00,,,0.00,LWC V2.11 B50,2013-03-11 03:43:00,
2013-03-10 23:48:00,53.1,32.3,29.95,SE,141,4.0,6.0,45,0.00,,,0.00,LWC V2.11 B50,2013-03-11 03:48:00,
2013-03-10 23:53:00,53.1,32.3,29.95,SE,133,6.0,7.0,45,0.00,,,0.00,LWC V2.11 B50,2013-03-11 03:53:00,
2013-03-10 23:58:00,53.3,32.0,29.95,SSE,155,4.0,9.0,44,0.00,,,0.00,LWC V2.11 B50,2013-03-11 03:58:00,